TIANWANG 1A (TW-1A)
1 40928U 15051D   19267.80064995  .00002109  00000-0  52621-4 0  9993
2 40928  97.1395 296.9224 0012836  77.9061 337.5013 15.41217841224287
LAPAN A2
1 40931U 15052B   19267.82687394  .00000748  00000-0  15087-4 0  9996
2 40931   5.9956  76.8239 0013056 103.1697 256.9887 14.76614759215799
LQSAT
1 40958U 15057A   19267.78457488 -.00000002  00000-0  73829-5 0  9997
2 40958  97.8902 334.2883 0016789 287.7908  72.1468 14.73089404213246
CHUBUSAT 2
1 41338U 16012B   19267.36840460  .00000318  00000-0  18050-4 0  9995
2 41338  31.0026 244.0112 0013741 350.5415   9.4960 15.00181764197598
CHUBUSAT 3
1 41339U 16012C   19267.32653295  .00000254  00000-0  12992-4 0  9998
2 41339  31.0105 242.2409 0013713 357.6987   2.3583 15.00354725197588
OUFTI-1
1 41458U 16025C   19267.46481292  .00001219  00000-0  65465-4 0  9990
2 41458  98.1006 359.2800 0166477  28.7925 332.2364 15.06032834187280
E-STAR-2
1 41459U 16025D   19267.77071670  .00000919  00000-0  50742-4 0  9998
2 41459  98.1016 359.2099 0167966  29.3781 331.6759 15.05661406187309
AAUSAT 4
1 41460U 16025E   19267.75469732  .00000400  00000-0  24187-4 0  9997
2 41460  98.0932   0.6800 0157598  20.8188 339.9323 15.07617384187442
NUSAT 1
1 41557U 16033B   19267.86192376  .00001001  00000-0  40043-4 0  9999
2 41557  97.4156 354.7893 0012496 316.0001  44.0242 15.27384878185078
BEESAT 4
1 41619U 16040W   19267.13495556  .00001071  00000-0  48018-4 0  9999
2 41619  97.3583 327.5036 0012447  47.4402 312.7884 15.23309212168694
PRATHAM
1 41783U 16059A   19267.74402743  .00000022  00000-0  13461-4 0  9993
2 41783  98.0577 325.1110 0034876  76.4574 284.0509 14.63009976159889
ALSAT 1N
1 41789U 16059G   19267.85397547  .00000054  00000-0  19246-4 0  9998
2 41789  98.0605 327.4279 0029493  65.4757 294.9502 14.64262832160011
NAYIF 1
1 42017U 17008BX  19267.29451995  .00001152  00000-0  47981-4 0  9991
2 42017  97.3947 333.3491 0006418 170.3164 189.8199 15.25725070144808
MAX VALIER SAT
1 42778U 17036P   19267.94445211 +.00000672 +00000-0 +32277-4 0  9990
2 42778 097.3448 323.4007 0010965 234.4292 125.5923 15.22141597125182
